Regional Weather Roundup
Issued by NWS

Home | Current Version | Previous Version | Graphics & Text | Print | Product List | Glossary On
Versions: 1 2 3 4 5 6 7 8 9 10 11 12 13 14 15 16 17 18 19 20 21 22 23 24 25 26 27 28 29 30 31 32 33 34 35 36 37 38 39 40 41 42 43 44 45 46 47 48 49 50
184
ASUS45 KSLC 300510
RWRUT

UTAH REGIONAL WEATHER ROUNDUP
NATIONAL WEATHER SERVICE SALT LAKE CITY UT
1100 PM MDT WED MAR 29 2017

UTZ001>011-023>025-300600-

NORTHERN UTAH

CITY           SKY/WX    TMP DP  RH WIND       PRES   REMARKS
BRIGHAM CITY   CLOUDY    51  35  55 CALM      30.04F
HILL AFB       CLOUDY    50  31  47 E6        30.04F
LOGAN          CLOUDY    50  34  54 SW3       30.04F
OGDEN          CLOUDY    49  34  56 S6        30.03F
SALT LAKE CITY MOCLDY    51  36  56 SE8       30.03F
TOOELE VALLEY  MOCLDY    46  37  71 S9        30.03F
WENDOVER       CLOUDY    52  36  54 E6        30.00F
HEBER CITY     CLOUDY    43  32  65 SE3       30.07F
WEST JORDAN    CLOUDY    52  44  74 S6        30.05F

$$

UTZ011>015-024>027-300600-

CENTRAL/NORTHEAST UTAH

CITY           SKY/WX    TMP DP  RH WIND       PRES   REMARKS
PROVO AIRPORT  CLOUDY    46  39  76 S7        30.07F
MOAB/CANYONLAN CLEAR     48  20  32 CALM      30.00F
DELTA          CLEAR     43  34  70 S8        30.08F
PRICE          PTCLDY    48  27  44 N5        30.06S
ROOSEVELT      CLEAR     45  34  65 NE5       30.04F
VERNAL         CLEAR     43  32  65 NW6       30.03F

$$

UTZ013>016-019>022-027-300600-

SOUTHERN UTAH

CITY           SKY/WX    TMP DP  RH WIND       PRES   REMARKS
BRYCE CANYON   PTCLDY    41  27  57 W12       30.17S
CEDAR CITY     PTCLDY    44  30  57 SE6       30.10F
MILFORD        CLEAR     42  33  70 S3        30.09F
ST GEORGE      MOCLDY    61  30  31 CALM      30.02F
HANKSVILLE     CLEAR     50  23  34 CALM      30.05S
BLANDING       CLEAR     42  18  36 N12       30.14F

$$

REGIONAL REPORTS     COLORADO/ARIZONA

CITY           SKY/WX    TMP DP  RH WIND       PRES   REMARKS
CRAIG, CO      CLEAR     34  26  72 E3        30.06S
GRAND JUNCTION CLEAR     44  30  57 E5        30.03S
RIFLE, CO      CLEAR     40  26  57 S5        30.07R
MONTROSE, CO   CLEAR     41  31  67 SE10      30.09S
CORTEZ, CO     CLEAR     41  26  55 VRB6      30.08S
COLORADO CITY    N/A     46  30  53 CALM      30.11F
PAGE, AZ       CLEAR     58  22  24 CALM      30.03S
GRAND CANYON   CLEAR     33  25  72 CALM      30.16S
KINGMAN, AZ    CLEAR     49  14  24 SE7       30.06F
FLAGSTAFF, AZ  CLEAR     34  20  56 CALM      30.16S

$$

REGIONAL REPORTS    NEVADA/IDAHO/WYOMING

CITY           SKY/WX    TMP DP  RH WIND       PRES   REMARKS
LAS VEGAS, NV  PTCLDY    68  26  20 SW5       29.98S
ELY, NY        PTCLDY    42  33  70 S9        30.09F
ELKO, NV       CLOUDY    53  37  54 SW9       30.03F
POCATELLO, ID  CLOUDY    50  36  58 S17       29.97F
BURLEY, ID     CLOUDY    52  39  61 S15       29.92F
EVANSTON, WY   CLOUDY    39  27  62 SW13      30.09F WCI  31
ROCK SPRINGS,  CLOUDY    43  29  57 W14       30.04F
KEMMERER, WY     N/A     34  30  86 CALM      30.07F

$$




USA.gov is the U.S. government's official web portal to all federal, state and local government web resources and services.